Weather History for St. James, MN

Change the Weather History Date:

Tuesday, April 10, 2012

  Actual Average Record
Temperature  
Mean Temperature 34 °F -  
Max Temperature 46 °F 53 °F 85 °F (1977)
Min Temperature 23 °F 32 °F 15 °F (1989)
Degree Days  
Heating Degree Days 30    
Moisture  
Dew Point 12 °F    
Average Humidity 41    
Maximum Humidity 69    
Minimum Humidity 18    
Precipitation  
Precipitation 0.00 in - - ()
Sea Level Pressure  
Sea Level Pressure 30.24 in    
Wind  
Wind Speed 7 mph (NW)    
Max Wind Speed 24 mph    
Max Gust Speed 32 mph    
Visibility 10 miles    
Events      
Averages and records for this station are not official NWS values.
T = Trace of Precipitation, MM = Missing Value Source: NWS Daily Summary

Daily Weather History Graph

Daily Weather History Graph

Search for Another Location

Airport:

Trip Planner

Search our weather history database for the weather conditions in past years. The results will help you decide how hot, cold, wet, or windy it might be!

Date:

Astronomy

Apr. 10, 2012 Rise Set
Actual Time 6:42 AM CDT 7:56 PM CDT
Civil Twilight 6:13 AM CDT 8:26 PM CDT
Nautical Twilight 5:37 AM CDT 9:02 PM CDT
Astronomical Twilight 4:59 AM CDT 9:40 PM CDT
Moon 12:00 AM CDT (4/10) 9:19 AM CDT (4/10)
Length of Visible Light 14h 13m
Length of Day
13h 14m
Waning Gibbous, 79% of the Moon is Illuminated
Apr 10
Waning Gibbous
Apr 13
Last Quarter
Apr 21
New
Apr 29
First Quarter
May 5
Full

Hourly Weather History & Observations

Time (CDT) Temp. Windchill Dew Point Humidity Pressure Visibility Wind Dir Wind Speed Gust Speed Precip Events Conditions
12:15 AM 30.2 °F - 14.0 °F 51% 30.19 in 10.0 mi Calm Calm - N/A   Clear
12:35 AM 28.4 °F - 14.0 °F 55% 30.20 in 10.0 mi Calm Calm - N/A   Clear
12:55 AM 28.4 °F - 14.0 °F 55% 30.20 in 10.0 mi Calm Calm - N/A   Clear
1:15 AM 28.4 °F - 15.8 °F 59% 30.20 in 10.0 mi Calm Calm - N/A   Clear
1:34 AM 26.6 °F - 15.8 °F 64% 30.20 in 10.0 mi Calm Calm - N/A   Clear
1:55 AM 26.6 °F - 14.0 °F 59% 30.20 in 10.0 mi Calm Calm - N/A   Clear
2:14 AM 28.4 °F - 14.0 °F 55% 30.20 in 10.0 mi Calm Calm - N/A   Clear
2:35 AM 26.6 °F - 15.8 °F 64% 30.20 in 10.0 mi Calm Calm - N/A   Clear
2:55 AM 26.6 °F - 15.8 °F 64% 30.20 in 10.0 mi Calm Calm - N/A   Clear
3:14 AM 24.8 °F - 14.0 °F 64% 30.20 in 10.0 mi Calm Calm - N/A   Clear
3:35 AM 26.6 °F - 15.8 °F 64% 30.20 in 10.0 mi Calm Calm - N/A   Clear
4:15 AM 26.6 °F - 15.8 °F 64% 30.19 in 10.0 mi Calm Calm - N/A   Clear
4:35 AM 24.8 °F - 15.8 °F 69% 30.20 in 10.0 mi Calm Calm - N/A   Clear
4:55 AM 24.8 °F - 15.8 °F 69% 30.20 in 10.0 mi Calm Calm - N/A   Clear
5:15 AM 24.8 °F - 15.8 °F 69% 30.20 in 10.0 mi Calm Calm - N/A   Clear
5:35 AM 24.8 °F - 14.0 °F 64% 30.20 in 10.0 mi Calm Calm - N/A   Clear
5:54 AM 23.0 °F - 14.0 °F 68% 30.20 in 10.0 mi Calm Calm - N/A   Clear
6:14 AM 26.6 °F - 15.8 °F 64% 30.20 in 10.0 mi Calm Calm - N/A   Clear
6:35 AM 26.6 °F - 15.8 °F 64% 30.21 in 10.0 mi Calm Calm - N/A   Clear
6:54 AM 26.6 °F - 15.8 °F 64% 30.21 in 10.0 mi Calm Calm - N/A   Clear
7:15 AM 28.4 °F 18.5 °F 15.8 °F 59% 30.22 in 10.0 mi WNW 11.5 mph - N/A   Clear
7:35 AM 28.4 °F 19.7 °F 15.8 °F 59% 30.22 in 10.0 mi West 9.2 mph - N/A   Clear
7:54 AM 30.2 °F 19.8 °F 17.6 °F 60% 30.23 in 10.0 mi WNW 13.8 mph 17.3 mph N/A   Clear
8:15 AM 32.0 °F 21.2 °F 17.6 °F 55% 30.23 in 10.0 mi WNW 16.1 mph - N/A   Clear
8:35 AM 33.8 °F 23.2 °F 17.6 °F 52% 30.24 in 10.0 mi WNW 17.3 mph 23.0 mph N/A   Clear
8:54 AM 35.6 °F 25.9 °F 17.6 °F 48% 30.24 in 10.0 mi WNW 16.1 mph - N/A   Clear
9:15 AM 35.6 °F 24.5 °F 15.8 °F 44% 30.24 in 10.0 mi NW 20.7 mph 24.2 mph N/A   Clear
9:35 AM 37.4 °F 27.5 °F 15.8 °F 41% 30.25 in 10.0 mi NW 18.4 mph - N/A   Clear
9:54 AM 37.4 °F 26.4 °F 15.8 °F 41% 30.26 in 10.0 mi NW 23.0 mph - N/A   Clear
10:15 AM 37.4 °F 27.8 °F 15.8 °F 41% 30.27 in 10.0 mi NW 17.3 mph 28.8 mph N/A   Clear
10:35 AM 37.4 °F 27.5 °F 12.2 °F 36% 30.27 in 10.0 mi NW 18.4 mph 29.9 mph N/A   Clear
10:55 AM 39.2 °F 28.5 °F 10.4 °F 31% 30.27 in 10.0 mi NW 24.2 mph 31.1 mph N/A   Clear
11:15 AM 39.2 °F 29.3 °F 12.2 °F 33% 30.27 in 10.0 mi WNW 20.7 mph 31.1 mph N/A   Clear
11:34 AM 39.2 °F 29.8 °F 10.4 °F 31% 30.27 in 10.0 mi NW 18.4 mph 25.3 mph N/A   Clear
11:55 AM 39.2 °F 29.3 °F 10.4 °F 31% 30.27 in 10.0 mi WNW 20.7 mph 27.6 mph N/A   Clear
12:15 PM 41.0 °F 31.6 °F 8.6 °F 26% 30.27 in 10.0 mi WNW 20.7 mph 26.5 mph N/A   Clear
12:34 PM 41.0 °F 31.9 °F 8.6 °F 26% 30.26 in 10.0 mi NW 19.6 mph 32.2 mph N/A   Clear
12:55 PM 42.8 °F 33.8 °F 6.8 °F 23% 30.26 in 10.0 mi NW 21.9 mph 29.9 mph N/A   Clear
1:15 PM 42.8 °F 34.5 °F 6.8 °F 23% 30.26 in 10.0 mi NW 18.4 mph 29.9 mph N/A   Clear
1:34 PM 42.8 °F 34.5 °F 6.8 °F 23% 30.25 in 10.0 mi NW 18.4 mph 28.8 mph N/A   Clear
1:55 PM 44.6 °F 37.2 °F 6.8 °F 21% 30.25 in 10.0 mi WNW 17.3 mph 26.5 mph N/A   Clear
2:14 PM 44.6 °F 36.9 °F 6.8 °F 21% 30.25 in 10.0 mi NW 18.4 mph 27.6 mph N/A   Clear
2:35 PM 44.6 °F 36.9 °F 6.8 °F 21% 30.25 in 10.0 mi NNW 18.4 mph 27.6 mph N/A   Clear
2:55 PM 44.6 °F 36.9 °F 6.8 °F 21% 30.24 in 10.0 mi WNW 18.4 mph 27.6 mph N/A   Clear
3:14 PM 44.6 °F 36.6 °F 6.8 °F 21% 30.24 in 10.0 mi NW 19.6 mph 27.6 mph N/A   Clear
3:35 PM 44.6 °F 36.6 °F 6.8 °F 21% 30.24 in 10.0 mi NW 19.6 mph 25.3 mph N/A   Clear
3:55 PM 46.4 °F 39.5 °F 5.0 °F 18% 30.24 in 10.0 mi WNW 17.3 mph 25.3 mph N/A   Clear
4:14 PM 46.4 °F 39.5 °F 6.8 °F 20% 30.23 in 10.0 mi NNW 17.3 mph 25.3 mph N/A   Clear
4:35 PM 46.4 °F 38.5 °F 6.8 °F 20% 30.23 in 10.0 mi NW 21.9 mph 32.2 mph N/A   Clear
4:55 PM 46.4 °F 38.5 °F 6.8 °F 20% 30.23 in 10.0 mi NW 21.9 mph 25.3 mph N/A   Clear
5:15 PM 46.4 °F 39.2 °F 6.8 °F 20% 30.24 in 10.0 mi NW 18.4 mph 29.9 mph N/A   Clear
5:34 PM 44.6 °F 36.1 °F 6.8 °F 21% 30.24 in 10.0 mi NW 21.9 mph 26.5 mph N/A   Clear
5:55 PM 44.6 °F 36.9 °F 6.8 °F 21% 30.24 in 10.0 mi NW 18.4 mph 28.8 mph N/A   Clear
6:14 PM 44.6 °F 36.6 °F 6.8 °F 21% 30.24 in 10.0 mi NNW 19.6 mph 26.5 mph N/A   Clear
6:34 PM 44.6 °F 37.4 °F 6.8 °F 21% 30.24 in 10.0 mi NNW 16.1 mph 24.2 mph N/A   Clear
6:55 PM 42.8 °F 34.5 °F 5.0 °F 21% 30.24 in 10.0 mi NW 18.4 mph 23.0 mph N/A   Clear
7:14 PM 42.8 °F 34.5 °F 6.8 °F 23% 30.25 in 10.0 mi NW 18.4 mph 23.0 mph N/A   Clear
7:34 PM 41.0 °F 32.8 °F 6.8 °F 24% 30.25 in 10.0 mi NW 16.1 mph 21.9 mph N/A   Clear
7:55 PM 39.2 °F 31.6 °F 6.8 °F 26% 30.25 in 10.0 mi NNW 12.7 mph 16.1 mph N/A   Clear
8:15 PM 37.4 °F 29.8 °F 8.6 °F 30% 30.26 in 10.0 mi NNW 11.5 mph - N/A   Clear
8:34 PM 37.4 °F 32.8 °F 8.6 °F 30% 30.26 in - NNW 5.8 mph - N/A   Clear
8:55 PM 37.4 °F - 8.6 °F 30% 30.27 in 10.0 mi Calm Calm - N/A   Clear
9:15 PM 35.6 °F - 10.4 °F 35% 30.28 in 10.0 mi Calm Calm - N/A   Clear
9:35 PM 35.6 °F - 10.4 °F 35% 30.28 in 10.0 mi Calm Calm - N/A   Clear
10:15 PM 32.0 °F - 12.2 °F 44% 30.29 in 10.0 mi Calm Calm - N/A   Clear
10:35 PM 32.0 °F - 12.2 °F 44% 30.30 in 10.0 mi Calm Calm - N/A   Clear
10:55 PM 30.2 °F - 12.2 °F 47% 30.30 in 10.0 mi Calm Calm - N/A   Clear
11:14 PM 30.2 °F - 12.2 °F 47% 30.31 in 10.0 mi Calm Calm - N/A   Clear
11:35 PM 28.4 °F - 12.2 °F 51% 30.31 in 10.0 mi Calm Calm - N/A   Clear
11:54 PM 28.4 °F - 12.2 °F 51% 30.31 in 10.0 mi Calm Calm - N/A   Clear